UAL671 KLAX-KAXX

Flight info

Callsign UAL671
Flight time 1h 55m
Altitude 37000
Route OSHNN1 YELAH PGS J72 DILCO J44 DEXTR DIXAN
Aircraft B738/M-SDE2E3FGHIRWXY/LB1

Departure

Time 2026-05-04 20:21
Airport Los Angeles International Airport (KLAX)

Arrival

Time 2026-05-04 22:16
Airport Angel Fire Airport (KAXX)
Time Latitude Longitude Altitude Speed Heading
2026-05-04 19:37 33.93997 -118.40664 137 ft 0 kts 359°
2026-05-04 19:59 33.93983 -118.40663 137 ft 2 kts 357°
2026-05-04 19:59 33.93968 -118.40662 137 ft 2 kts 355°
2026-05-04 19:59 33.93953 -118.40661 137 ft 2 kts 353°
2026-05-04 20:00 33.93938 -118.40660 137 ft 2 kts 351°
2026-05-04 20:00 33.93923 -118.40659 137 ft 2 kts 349°
2026-05-04 20:00 33.93909 -118.40658 137 ft 2 kts
2026-05-04 20:00 33.93903 -118.40663 137 ft 1 kts 47°
2026-05-04 20:01 33.93898 -118.40666 137 ft 1 kts 50°
2026-05-04 20:01 33.93896 -118.40674 137 ft 2 kts 108°
2026-05-04 20:01 33.93895 -118.40682 137 ft 1 kts 63°
2026-05-04 20:01 33.93895 -118.40689 137 ft 1 kts 113°
2026-05-04 20:02 33.93897 -118.40691 137 ft 0 kts 71°
2026-05-04 20:04 33.93900 -118.40673 137 ft 3 kts 80°
2026-05-04 20:04 33.93904 -118.40635 137 ft 5 kts 85°
2026-05-04 20:05 33.93906 -118.40605 137 ft 2 kts 85°
2026-05-04 20:05 33.93906 -118.40595 137 ft 2 kts 85°
2026-05-04 20:05 33.93906 -118.40565 137 ft 5 kts 103°
2026-05-04 20:05 33.93892 -118.40544 137 ft 3 kts 148°
2026-05-04 20:06 33.93862 -118.40532 137 ft 5 kts 176°
2026-05-04 20:06 33.93832 -118.40556 137 ft 5 kts 247°
2026-05-04 20:06 33.93820 -118.40609 137 ft 7 kts 261°
2026-05-04 20:06 33.93814 -118.40670 137 ft 9 kts 264°
2026-05-04 20:07 33.93806 -118.40756 137 ft 12 kts 263°
2026-05-04 20:07 33.93798 -118.40827 137 ft 6 kts 263°
2026-05-04 20:07 33.93792 -118.40892 137 ft 9 kts 263°
2026-05-04 20:07 33.93783 -118.40983 137 ft 13 kts 262°
2026-05-04 20:08 33.93771 -118.41088 137 ft 10 kts 262°
2026-05-04 20:08 33.93766 -118.41137 137 ft 5 kts 263°
2026-05-04 20:08 33.93762 -118.41179 137 ft 0 kts 263°
2026-05-04 20:09 33.93761 -118.41190 137 ft 3 kts 264°
2026-05-04 20:09 33.93767 -118.41221 137 ft 5 kts 297°
2026-05-04 20:09 33.93791 -118.41242 137 ft 3 kts 340°
2026-05-04 20:10 33.93815 -118.41249 137 ft 3 kts
2026-05-04 20:10 33.93831 -118.41230 137 ft 4 kts 60°
2026-05-04 20:10 33.93842 -118.41186 137 ft 7 kts 77°
2026-05-04 20:10 33.93849 -118.41137 137 ft 5 kts 80°
2026-05-04 20:11 33.93857 -118.41079 137 ft 9 kts 83°
2026-05-04 20:11 33.93865 -118.40998 137 ft 9 kts 83°
2026-05-04 20:11 33.93871 -118.40933 137 ft 8 kts 83°
2026-05-04 20:11 33.93880 -118.40849 137 ft 12 kts 83°
2026-05-04 20:12 33.93890 -118.40738 137 ft 15 kts 83°
2026-05-04 20:12 33.93902 -118.40619 137 ft 15 kts 83°
2026-05-04 20:12 33.93916 -118.40489 137 ft 17 kts 82°
2026-05-04 20:12 33.93930 -118.40350 137 ft 13 kts 83°
2026-05-04 20:13 33.93942 -118.40232 137 ft 16 kts 83°
2026-05-04 20:13 33.93955 -118.40093 137 ft 18 kts 83°
2026-05-04 20:13 33.93967 -118.39970 137 ft 8 kts 83°
2026-05-04 20:13 33.93974 -118.39903 137 ft 10 kts 83°
2026-05-04 20:14 33.93982 -118.39823 137 ft 11 kts 83°
2026-05-04 20:14 33.93982 -118.39737 137 ft 12 kts 92°
2026-05-04 20:14 33.93987 -118.39630 137 ft 14 kts 81°
2026-05-04 20:14 33.94010 -118.39506 137 ft 16 kts 79°
2026-05-04 20:15 33.94024 -118.39362 137 ft 15 kts 84°
2026-05-04 20:15 33.94034 -118.39248 137 ft 15 kts 83°
2026-05-04 20:15 33.94047 -118.39122 137 ft 17 kts 83°
2026-05-04 20:15 33.94062 -118.38978 137 ft 18 kts 84°
2026-05-04 20:16 33.94075 -118.38832 137 ft 18 kts 83°
2026-05-04 20:16 33.94089 -118.38697 137 ft 14 kts 84°
2026-05-04 20:16 33.94099 -118.38574 137 ft 12 kts 84°
2026-05-04 20:16 33.94108 -118.38484 137 ft 9 kts 83°
2026-05-04 20:17 33.94110 -118.38457 137 ft 1 kts 83°
2026-05-04 20:17 33.94112 -118.38441 137 ft 0 kts 83°
2026-05-04 20:17 33.94113 -118.38433 137 ft 3 kts 83°
2026-05-04 20:17 33.94113 -118.38398 137 ft 6 kts 98°
2026-05-04 20:18 33.94089 -118.38354 137 ft 7 kts 140°
2026-05-04 20:18 33.94051 -118.38334 137 ft 6 kts 168°
2026-05-04 20:18 33.94001 -118.38330 137 ft 9 kts 178°
2026-05-04 20:18 33.93928 -118.38326 137 ft 12 kts 175°
2026-05-04 20:19 33.93842 -118.38315 137 ft 10 kts 172°
2026-05-04 20:19 33.93785 -118.38306 137 ft 1 kts 172°
2026-05-04 20:19 33.93776 -118.38305 137 ft 2 kts 181°
2026-05-04 20:19 33.93753 -118.38314 137 ft 4 kts 212°
2026-05-04 20:20 33.93733 -118.38358 137 ft 10 kts 252°
2026-05-04 20:20 33.93711 -118.38500 137 ft 26 kts 263°
2026-05-04 20:20 33.93676 -118.38850 138 ft 69 kts 263°
2026-05-04 20:20 33.93590 -118.39689 138 ft 133 kts 263°
2026-05-04 20:21 33.93445 -118.41129 171 ft 212 kts 263°
2026-05-04 20:21 33.93252 -118.43056 832 ft 241 kts 263°
2026-05-04 20:21 33.93436 -118.47133 1380 ft 254 kts 287°
2026-05-04 20:22 33.93847 -118.49196 1590 ft 253 kts 279°
2026-05-04 20:22 33.94002 -118.51321 1844 ft 253 kts 272°
2026-05-04 20:22 33.93993 -118.53451 2102 ft 262 kts 268°
2026-05-04 20:22 33.93886 -118.55670 2359 ft 267 kts 266°
2026-05-04 20:23 33.93725 -118.57896 2608 ft 267 kts 265°
2026-05-04 20:23 33.93539 -118.60110 2857 ft 267 kts 264°
2026-05-04 20:23 33.93148 -118.62289 3095 ft 268 kts 247°
2026-05-04 20:23 33.92055 -118.64095 3347 ft 270 kts 222°
2026-05-04 20:24 33.90413 -118.65175 3599 ft 272 kts 197°
2026-05-04 20:24 33.88532 -118.65324 3858 ft 273 kts 173°
2026-05-04 20:24 33.86706 -118.64794 4118 ft 275 kts 161°
2026-05-04 20:24 33.84930 -118.63921 4371 ft 276 kts 154°
2026-05-04 20:25 33.83226 -118.62850 4622 ft 277 kts 150°
2026-05-04 20:25 33.81567 -118.61660 4873 ft 278 kts 148°
2026-05-04 20:25 33.79936 -118.60403 5124 ft 279 kts 146°
2026-05-04 20:25 33.78314 -118.59106 5375 ft 280 kts 146°
2026-05-04 20:26 33.76700 -118.57791 5625 ft 281 kts 146°
2026-05-04 20:26 33.75080 -118.56463 5875 ft 283 kts 145°
2026-05-04 20:26 33.73474 -118.55146 6123 ft 284 kts 145°
2026-05-04 20:26 33.71891 -118.53722 6369 ft 285 kts 137°
2026-05-04 20:27 33.70571 -118.51943 6626 ft 286 kts 126°
2026-05-04 20:27 33.69495 -118.49942 6878 ft 287 kts 119°
2026-05-04 20:27 33.68588 -118.47801 7130 ft 288 kts 114°
2026-05-04 20:27 33.67796 -118.45581 7382 ft 289 kts 111°
2026-05-04 20:28 33.67085 -118.43354 7629 ft 290 kts 109°
2026-05-04 20:28 33.66404 -118.41071 7879 ft 291 kts 108°
2026-05-04 20:28 33.65741 -118.38770 8129 ft 293 kts 108°
2026-05-04 20:28 33.65199 -118.36420 8380 ft 293 kts 101°
2026-05-04 20:29 33.64838 -118.34003 8631 ft 294 kts 97°
2026-05-04 20:29 33.64616 -118.31563 8882 ft 295 kts 93°
2026-05-04 20:29 33.64493 -118.29090 9134 ft 296 kts 91°
2026-05-04 20:29 33.64437 -118.26618 9384 ft 298 kts 89°
2026-05-04 20:30 33.64422 -118.24120 9635 ft 299 kts 89°
2026-05-04 20:30 33.64516 -118.21632 9828 ft 300 kts 78°
2026-05-04 20:30 33.65229 -118.19328 9958 ft 300 kts 59°
2026-05-04 20:30 33.66415 -118.17269 9996 ft 301 kts 49°
2026-05-04 20:31 33.67838 -118.15437 10000 ft 300 kts 42°
2026-05-04 20:31 33.69387 -118.13754 10000 ft 299 kts 38°
2026-05-04 20:31 33.70985 -118.12177 10000 ft 298 kts 37°
2026-05-04 20:31 33.72587 -118.10679 10000 ft 297 kts 36°
2026-05-04 20:32 33.74249 -118.09168 10000 ft 297 kts 35°
2026-05-04 20:32 33.75901 -118.07686 10000 ft 297 kts 34°
2026-05-04 20:32 33.77575 -118.06193 10047 ft 294 kts 34°
2026-05-04 20:32 33.79175 -118.04764 10426 ft 289 kts 34°
2026-05-04 20:33 33.80798 -118.03314 10804 ft 292 kts 34°
2026-05-04 20:33 33.82430 -118.01856 11180 ft 295 kts 34°
2026-05-04 20:33 33.84094 -118.00365 11559 ft 298 kts 34°
2026-05-04 20:33 33.85752 -117.98876 11934 ft 300 kts 34°
2026-05-04 20:34 33.87428 -117.97369 12309 ft 303 kts 34°
2026-05-04 20:34 33.89124 -117.95840 12687 ft 305 kts 34°
2026-05-04 20:34 33.90829 -117.94296 13064 ft 307 kts 34°
2026-05-04 20:34 33.92518 -117.92762 13435 ft 309 kts 34°
2026-05-04 20:35 33.94236 -117.91196 13811 ft 311 kts 34°
2026-05-04 20:35 33.95965 -117.89619 14186 ft 314 kts 34°
2026-05-04 20:35 33.97714 -117.88020 14563 ft 316 kts 34°
2026-05-04 20:35 33.99466 -117.86418 14938 ft 318 kts 34°
2026-05-04 20:36 34.01233 -117.84800 15314 ft 320 kts 34°
2026-05-04 20:36 34.03014 -117.83169 15690 ft 323 kts 34°
2026-05-04 20:36 34.04805 -117.81527 16066 ft 325 kts 34°
2026-05-04 20:36 34.06564 -117.79834 16439 ft 328 kts 38°
2026-05-04 20:37 34.08245 -117.77951 16817 ft 332 kts 42°
2026-05-04 20:37 34.09876 -117.75922 17201 ft 351 kts 44°
2026-05-04 20:37 34.11612 -117.73622 17600 ft 389 kts 46°
2026-05-04 20:37 34.13445 -117.71084 17992 ft 409 kts 47°
2026-05-04 20:38 34.15295 -117.68440 18372 ft 418 kts 48°
2026-05-04 20:38 34.17166 -117.65707 18752 ft 425 kts 49°
2026-05-04 20:38 34.19041 -117.62928 19129 ft 430 kts 49°
2026-05-04 20:38 34.20913 -117.60130 19502 ft 435 kts 49°
2026-05-04 20:39 34.22814 -117.57274 19879 ft 439 kts 49°
2026-05-04 20:39 34.24730 -117.54388 20255 ft 443 kts 50°
2026-05-04 20:39 34.26665 -117.51469 20632 ft 446 kts 50°
2026-05-04 20:39 34.28619 -117.48528 21009 ft 449 kts 49°
2026-05-04 20:40 34.30588 -117.45577 21386 ft 452 kts 49°
2026-05-04 20:40 34.32571 -117.42609 21762 ft 455 kts 49°
2026-05-04 20:40 34.34569 -117.39624 22138 ft 458 kts 49°
2026-05-04 20:40 34.36553 -117.36660 22510 ft 461 kts 49°
2026-05-04 20:41 34.38572 -117.33640 22886 ft 463 kts 49°
2026-05-04 20:41 34.40607 -117.30596 23262 ft 466 kts 49°
2026-05-04 20:41 34.42651 -117.27534 23638 ft 469 kts 49°
2026-05-04 20:41 34.44706 -117.24451 24015 ft 471 kts 49°
2026-05-04 20:42 34.46771 -117.21350 24391 ft 474 kts 49°
2026-05-04 20:42 34.48837 -117.18241 24765 ft 477 kts 49°
2026-05-04 20:42 34.50927 -117.15091 25142 ft 480 kts 49°
2026-05-04 20:42 34.53026 -117.11941 25518 ft 482 kts 49°
2026-05-04 20:43 34.55129 -117.08825 25890 ft 485 kts 49°
2026-05-04 20:43 34.57279 -117.05663 26266 ft 487 kts 49°
2026-05-04 20:43 34.59448 -117.02491 26642 ft 490 kts 49°
2026-05-04 20:43 34.61634 -116.99302 27018 ft 492 kts 48°
2026-05-04 20:44 34.63830 -116.96103 27393 ft 495 kts 48°
2026-05-04 20:44 34.66039 -116.92886 27769 ft 498 kts 48°
2026-05-04 20:44 34.68261 -116.89649 28145 ft 500 kts 48°
2026-05-04 20:44 34.70501 -116.86381 28522 ft 503 kts 48°
2026-05-04 20:45 34.72718 -116.83144 28893 ft 506 kts 49°
2026-05-04 20:45 34.74967 -116.79855 29268 ft 508 kts 49°
2026-05-04 20:45 34.77234 -116.76533 29645 ft 511 kts 49°
2026-05-04 20:45 34.79507 -116.73198 30021 ft 514 kts 49°
2026-05-04 20:46 34.81790 -116.69840 30397 ft 516 kts 49°
2026-05-04 20:46 34.84008 -116.66392 30772 ft 520 kts 54°
2026-05-04 20:46 34.85865 -116.62599 31152 ft 523 kts 61°
2026-05-04 20:46 34.87420 -116.58596 31534 ft 525 kts 65°
2026-05-04 20:47 34.88780 -116.54450 31917 ft 526 kts 69°
2026-05-04 20:47 34.90004 -116.50244 32298 ft 527 kts 70°
2026-05-04 20:47 34.91126 -116.46069 32671 ft 527 kts 71°
2026-05-04 20:47 34.92217 -116.41796 33048 ft 527 kts 72°
2026-05-04 20:48 34.93275 -116.37526 33422 ft 527 kts 72°
2026-05-04 20:48 34.94317 -116.33250 33769 ft 527 kts 72°
2026-05-04 20:48 34.95360 -116.28944 33914 ft 531 kts 72°
2026-05-04 20:48 34.96413 -116.24599 33994 ft 536 kts 72°
2026-05-04 20:49 34.98557 -116.15803 34000 ft 546 kts 72°
2026-05-04 20:49 34.99628 -116.11443 33979 ft 509 kts 72°
2026-05-04 20:49 35.00567 -116.07611 33981 ft 463 kts 72°
2026-05-04 20:50 35.01505 -116.03795 33998 ft 478 kts 72°
2026-05-04 20:50 35.02479 -115.99859 34001 ft 491 kts 72°
2026-05-04 20:50 35.03485 -115.95815 34000 ft 504 kts 72°
2026-05-04 20:50 35.04519 -115.91683 34000 ft 514 kts 72°
2026-05-04 20:51 35.06643 -115.83228 33998 ft 526 kts 72°
2026-05-04 20:51 35.08792 -115.74700 33996 ft 531 kts 72°
2026-05-04 20:52 35.10963 -115.66094 33996 ft 531 kts 72°
2026-05-04 20:52 35.13136 -115.57475 33996 ft 530 kts 72°
2026-05-04 20:53 35.15302 -115.48871 33996 ft 530 kts 72°
2026-05-04 20:53 35.17452 -115.40311 33996 ft 530 kts 72°
2026-05-04 20:54 35.19609 -115.31705 33996 ft 530 kts 72°
2026-05-04 20:54 35.21764 -115.23082 33996 ft 530 kts 72°
2026-05-04 20:55 35.23908 -115.14477 33996 ft 530 kts 72°
2026-05-04 20:55 35.26039 -115.05901 33996 ft 530 kts 72°
2026-05-04 20:56 35.28175 -114.97273 33996 ft 530 kts 72°
2026-05-04 20:56 35.30302 -114.88656 33996 ft 530 kts 72°
2026-05-04 20:57 35.32429 -114.80007 33996 ft 530 kts 72°
2026-05-04 20:57 35.34548 -114.71367 33996 ft 530 kts 72°
2026-05-04 20:58 35.36640 -114.62801 33996 ft 530 kts 72°
2026-05-04 20:58 35.38752 -114.54128 33996 ft 530 kts 72°
2026-05-04 20:59 35.40851 -114.45476 33996 ft 530 kts 72°
2026-05-04 20:59 35.42943 -114.36827 33996 ft 530 kts 72°
2026-05-04 21:00 35.45031 -114.28158 33996 ft 530 kts 73°
2026-05-04 21:00 35.47098 -114.19551 33996 ft 530 kts 73°
2026-05-04 21:01 35.49174 -114.10870 33996 ft 530 kts 73°
2026-05-04 21:01 35.51239 -114.02209 33996 ft 530 kts 73°
2026-05-04 21:02 35.53304 -113.93513 33996 ft 530 kts 73°
2026-05-04 21:02 35.55344 -113.84891 33996 ft 530 kts 73°
2026-05-04 21:03 35.57392 -113.76200 33996 ft 530 kts 73°
2026-05-04 21:03 35.59435 -113.67496 33996 ft 530 kts 73°
2026-05-04 21:04 35.61462 -113.58798 33996 ft 530 kts 74°
2026-05-04 21:04 35.62655 -113.49929 33997 ft 531 kts 85°
2026-05-04 21:05 35.62938 -113.40865 33997 ft 531 kts 90°
2026-05-04 21:05 35.62824 -113.31787 33996 ft 531 kts 91°
2026-05-04 21:06 35.62564 -113.22725 33996 ft 531 kts 92°
2026-05-04 21:06 35.62274 -113.13670 33996 ft 531 kts 92°
2026-05-04 21:07 35.61998 -113.04653 33996 ft 531 kts 92°
2026-05-04 21:07 35.61748 -112.95595 33996 ft 531 kts 92°
2026-05-04 21:08 35.61520 -112.86465 33996 ft 531 kts 91°
2026-05-04 21:08 35.61313 -112.77390 33996 ft 531 kts 91°
2026-05-04 21:09 35.61117 -112.68339 33996 ft 531 kts 91°
2026-05-04 21:09 35.60925 -112.59271 33996 ft 531 kts 91°
2026-05-04 21:10 35.60735 -112.50248 33996 ft 531 kts 91°
2026-05-04 21:10 35.60537 -112.41183 33996 ft 531 kts 91°
2026-05-04 21:11 35.60310 -112.32124 33996 ft 531 kts 92°
2026-05-04 21:11 35.60057 -112.23066 33996 ft 531 kts 92°
2026-05-04 21:12 35.59788 -112.14052 33996 ft 531 kts 92°
2026-05-04 21:12 35.59506 -112.04992 33996 ft 531 kts 92°
2026-05-04 21:13 35.59215 -111.95948 33996 ft 531 kts 92°
2026-05-04 21:13 35.58944 -111.86881 33996 ft 531 kts 92°
2026-05-04 21:14 35.58737 -111.77812 33996 ft 531 kts 91°
2026-05-04 21:14 35.58562 -111.68801 33996 ft 531 kts 91°
2026-05-04 21:15 35.58395 -111.59739 33996 ft 531 kts 91°
2026-05-04 21:15 35.58212 -111.50678 33996 ft 531 kts 91°
2026-05-04 21:16 35.57977 -111.41608 33996 ft 531 kts 92°
2026-05-04 21:16 35.57712 -111.32555 33996 ft 531 kts 92°
2026-05-04 21:17 35.57431 -111.23559 33996 ft 531 kts 92°
2026-05-04 21:17 35.57138 -111.14491 33996 ft 531 kts 92°
2026-05-04 21:18 35.56837 -111.05429 33996 ft 531 kts 92°
2026-05-04 21:18 35.56530 -110.96386 33996 ft 531 kts 92°
2026-05-04 21:19 35.56218 -110.87375 33996 ft 531 kts 92°
2026-05-04 21:19 35.55899 -110.78330 33996 ft 531 kts 92°
2026-05-04 21:20 35.55573 -110.69269 33996 ft 531 kts 92°
2026-05-04 21:20 35.55242 -110.60225 33996 ft 531 kts 92°
2026-05-04 21:21 35.54905 -110.51222 33996 ft 531 kts 92°
2026-05-04 21:21 35.54560 -110.42180 33996 ft 531 kts 93°
2026-05-04 21:22 35.54208 -110.33127 33996 ft 531 kts 93°
2026-05-04 21:22 35.53848 -110.24066 33996 ft 531 kts 93°
2026-05-04 21:23 35.53483 -110.15072 33996 ft 531 kts 93°
2026-05-04 21:23 35.53441 -110.07506 33994 ft 530 kts 82°
2026-05-04 21:24 35.54814 -110.01794 33999 ft 528 kts 64°
2026-05-04 21:24 35.56593 -109.97853 34001 ft 526 kts 55°
2026-05-04 21:24 35.60342 -109.92003 33999 ft 524 kts 46°
2026-05-04 21:25 35.66316 -109.84648 33996 ft 524 kts 47°
2026-05-04 21:25 35.68387 -109.80968 33997 ft 527 kts 60°
2026-05-04 21:25 35.69929 -109.76862 33999 ft 529 kts 68°
2026-05-04 21:26 35.72038 -109.68203 33998 ft 530 kts 76°
2026-05-04 21:26 35.73298 -109.60826 33997 ft 530 kts 78°
2026-05-04 21:27 35.74595 -109.51874 33996 ft 530 kts 80°
2026-05-04 21:27 35.76032 -109.41479 33996 ft 530 kts 80°
2026-05-04 21:28 35.77078 -109.34035 33996 ft 530 kts 79°
2026-05-04 21:28 35.78372 -109.25102 33996 ft 530 kts 79°
2026-05-04 21:29 35.79707 -109.16169 33996 ft 530 kts 79°
2026-05-04 21:29 35.81077 -109.07234 33996 ft 530 kts 78°
2026-05-04 21:30 35.82468 -108.98321 33996 ft 530 kts 78°
2026-05-04 21:30 35.84108 -108.87953 33996 ft 530 kts 78°
2026-05-04 21:31 35.85999 -108.76087 33996 ft 530 kts 78°
2026-05-04 21:32 35.87428 -108.67150 33996 ft 530 kts 78°
2026-05-04 21:32 35.88852 -108.58245 33996 ft 530 kts 78°
2026-05-04 21:33 35.90269 -108.49372 33996 ft 530 kts 78°
2026-05-04 21:33 35.91690 -108.40450 33996 ft 530 kts 78°
2026-05-04 21:34 35.93109 -108.31518 33996 ft 530 kts 78°
2026-05-04 21:34 35.94519 -108.22599 33996 ft 530 kts 78°
2026-05-04 21:35 35.95926 -108.13664 33996 ft 530 kts 78°
2026-05-04 21:35 35.97318 -108.04784 33996 ft 530 kts 78°
2026-05-04 21:36 35.98714 -107.95839 33996 ft 530 kts 78°
2026-05-04 21:36 36.00103 -107.86893 33996 ft 530 kts 78°
2026-05-04 21:37 36.01477 -107.78001 33996 ft 530 kts 78°
2026-05-04 21:37 36.02851 -107.69061 33996 ft 530 kts 79°
2026-05-04 21:38 36.04222 -107.60097 33996 ft 530 kts 79°
2026-05-04 21:38 36.05582 -107.51157 33996 ft 530 kts 79°
2026-05-04 21:39 36.06940 -107.42184 33996 ft 530 kts 79°
2026-05-04 21:39 36.08280 -107.33283 33995 ft 530 kts 79°
2026-05-04 21:40 36.09626 -107.24296 33512 ft 531 kts 79°
2026-05-04 21:40 36.10273 -107.19955 32912 ft 498 kts 79°
2026-05-04 21:40 36.10882 -107.15846 32282 ft 471 kts 79°
2026-05-04 21:40 36.11454 -107.11969 31653 ft 449 kts 79°
2026-05-04 21:41 36.11993 -107.08313 31246 ft 425 kts 79°
2026-05-04 21:41 36.12512 -107.04772 30919 ft 403 kts 79°
2026-05-04 21:41 36.12994 -107.01484 30610 ft 384 kts 79°
2026-05-04 21:41 36.13459 -106.98308 30325 ft 366 kts 79°
2026-05-04 21:42 36.13897 -106.95303 30151 ft 347 kts 79°
2026-05-04 21:42 36.14315 -106.92438 30004 ft 330 kts 79°
2026-05-04 21:42 36.14714 -106.89700 29864 ft 318 kts 79°
2026-05-04 21:42 36.15101 -106.87047 29729 ft 311 kts 79°
2026-05-04 21:43 36.15484 -106.84418 29598 ft 307 kts 79°
2026-05-04 21:43 36.15855 -106.81872 29471 ft 305 kts 79°
2026-05-04 21:43 36.16236 -106.79256 29342 ft 303 kts 79°
2026-05-04 21:43 36.16603 -106.76728 29218 ft 302 kts 79°
2026-05-04 21:44 36.16974 -106.74177 29092 ft 301 kts 79°
2026-05-04 21:44 36.17343 -106.71630 28967 ft 301 kts 79°
2026-05-04 21:44 36.17712 -106.69079 28841 ft 300 kts 79°
2026-05-04 21:44 36.18078 -106.66550 28716 ft 299 kts 79°
2026-05-04 21:45 36.18442 -106.64019 28591 ft 299 kts 79°
2026-05-04 21:45 36.18807 -106.61486 28466 ft 298 kts 79°
2026-05-04 21:45 36.19170 -106.58963 28341 ft 297 kts 79°
2026-05-04 21:45 36.19531 -106.56445 28216 ft 297 kts 79°
2026-05-04 21:46 36.19887 -106.53962 28092 ft 296 kts 79°
2026-05-04 21:46 36.20245 -106.51462 27967 ft 295 kts 79°
2026-05-04 21:46 36.20603 -106.48955 27842 ft 295 kts 79°
2026-05-04 21:46 36.20958 -106.46460 27710 ft 295 kts 79°
2026-05-04 21:47 36.21315 -106.43957 27509 ft 296 kts 79°
2026-05-04 21:47 36.21672 -106.41446 27308 ft 295 kts 79°
2026-05-04 21:47 36.22026 -106.38949 27108 ft 294 kts 79°
2026-05-04 21:47 36.22379 -106.36458 26907 ft 293 kts 79°
2026-05-04 21:48 36.22729 -106.33988 26706 ft 291 kts 79°
2026-05-04 21:48 36.23072 -106.31559 26498 ft 290 kts 79°
2026-05-04 21:48 36.23419 -106.29094 26258 ft 290 kts 79°
2026-05-04 21:48 36.23765 -106.26638 26010 ft 289 kts 79°
2026-05-04 21:49 36.24109 -106.24196 25761 ft 287 kts 79°
2026-05-04 21:49 36.24451 -106.21757 25510 ft 286 kts 79°
2026-05-04 21:49 36.24790 -106.19336 25259 ft 284 kts 79°
2026-05-04 21:49 36.25127 -106.16930 25008 ft 283 kts 79°
2026-05-04 21:50 36.25462 -106.14535 24758 ft 282 kts 79°
2026-05-04 21:50 36.25790 -106.12183 24511 ft 280 kts 79°
2026-05-04 21:50 36.26121 -106.09808 24266 ft 279 kts 79°
2026-05-04 21:50 36.26449 -106.07450 24024 ft 278 kts 79°
2026-05-04 21:51 36.26776 -106.05096 23776 ft 277 kts 79°
2026-05-04 21:51 36.27042 -106.03174 23571 ft 276 kts 79°
2026-05-04 21:51 36.27365 -106.00842 23321 ft 275 kts 79°
2026-05-04 21:52 36.27705 -105.98519 23071 ft 273 kts 77°
2026-05-04 21:52 36.27970 -105.96959 22901 ft 272 kts 76°
2026-05-04 21:52 36.28382 -105.94742 22658 ft 271 kts 75°
2026-05-04 21:52 36.28834 -105.92444 22404 ft 270 kts 75°
2026-05-04 21:53 36.29289 -105.90212 22156 ft 269 kts 74°
2026-05-04 21:53 36.29747 -105.88002 21909 ft 267 kts 74°
2026-05-04 21:53 36.30218 -105.85759 21656 ft 266 kts 74°
2026-05-04 21:53 36.30688 -105.83534 21408 ft 265 kts 74°
2026-05-04 21:54 36.31159 -105.81311 21185 ft 263 kts 74°
2026-05-04 21:54 36.31615 -105.79164 20984 ft 262 kts 74°
2026-05-04 21:54 36.32080 -105.76977 20782 ft 261 kts 74°
2026-05-04 21:54 36.32542 -105.74806 20582 ft 260 kts 74°
2026-05-04 21:55 36.33010 -105.72646 20381 ft 259 kts 71°
2026-05-04 21:55 36.33819 -105.70717 20181 ft 254 kts 50°
2026-05-04 21:55 36.34968 -105.69045 19986 ft 251 kts 43°
2026-05-04 21:55 36.36174 -105.67518 19792 ft 251 kts 41°
2026-05-04 21:56 36.37404 -105.65986 19592 ft 250 kts 42°
2026-05-04 21:56 36.38612 -105.64444 19393 ft 250 kts 43°
2026-05-04 21:56 36.39799 -105.62875 19194 ft 249 kts 44°
2026-05-04 21:56 36.40965 -105.61286 18993 ft 248 kts 45°
2026-05-04 21:57 36.42109 -105.59689 18793 ft 247 kts 45°
2026-05-04 21:57 36.43239 -105.58082 18593 ft 246 kts 46°
2026-05-04 21:57 36.44354 -105.56476 18393 ft 245 kts 46°
2026-05-04 21:57 36.45459 -105.54870 18192 ft 244 kts 46°
2026-05-04 21:58 36.46651 -105.53432 17994 ft 240 kts 36°
2026-05-04 21:58 36.47965 -105.52140 17812 ft 236 kts 33°
2026-05-04 21:58 36.49240 -105.50958 17708 ft 225 kts 32°
2026-05-04 21:58 36.50487 -105.49822 17548 ft 221 kts 32°
2026-05-04 21:59 36.51727 -105.48702 17370 ft 222 kts 32°
2026-05-04 21:59 36.52983 -105.47570 17179 ft 224 kts 32°
2026-05-04 21:59 36.54252 -105.46426 16983 ft 225 kts 32°
2026-05-04 21:59 36.55521 -105.45281 16787 ft 226 kts 32°
2026-05-04 22:00 36.56795 -105.44131 16590 ft 226 kts 32°
2026-05-04 22:00 36.58066 -105.42983 16354 ft 227 kts 32°
2026-05-04 22:00 36.59232 -105.41640 15973 ft 235 kts 49°
2026-05-04 22:00 36.59776 -105.39743 15605 ft 242 kts 79°
2026-05-04 22:01 36.59508 -105.37674 15237 ft 246 kts 110°
2026-05-04 22:01 36.58561 -105.35917 14898 ft 244 kts 130°
2026-05-04 22:01 36.57367 -105.34433 14533 ft 240 kts 139°
2026-05-04 22:01 36.56095 -105.33119 14159 ft 236 kts 143°
2026-05-04 22:02 36.54780 -105.31920 13783 ft 233 kts 146°
2026-05-04 22:02 36.53427 -105.30824 13406 ft 230 kts 149°
2026-05-04 22:02 36.52037 -105.29878 13029 ft 227 kts 155°
2026-05-04 22:02 36.50562 -105.29198 12651 ft 224 kts 165°
2026-05-04 22:03 36.49046 -105.28817 12278 ft 221 kts 174°
2026-05-04 22:03 36.47576 -105.28376 11941 ft 223 kts 156°
2026-05-04 22:03 36.46516 -105.27040 12289 ft 223 kts 121°
2026-05-04 22:03 36.46160 -105.25150 12690 ft 230 kts 90°
2026-05-04 22:04 36.46326 -105.23174 13103 ft 231 kts 79°
2026-05-04 22:04 36.46612 -105.21205 13476 ft 233 kts 77°
2026-05-04 22:04 36.47130 -105.19328 13836 ft 232 kts 61°
2026-05-04 22:04 36.47679 -105.17415 14194 ft 238 kts 77°
2026-05-04 22:05 36.47745 -105.15382 14590 ft 237 kts 86°
2026-05-04 22:05 36.48283 -105.13473 14857 ft 238 kts 57°
2026-05-04 22:05 36.49334 -105.11838 14844 ft 245 kts 45°
2026-05-04 22:05 36.50542 -105.10306 14615 ft 250 kts 41°
2026-05-04 22:06 36.52071 -105.09323 14349 ft 249 kts 14°
2026-05-04 22:06 36.53764 -105.09364 14155 ft 242 kts 346°
2026-05-04 22:06 36.55182 -105.10399 14043 ft 236 kts 317°
2026-05-04 22:06 36.55977 -105.12146 14003 ft 233 kts 289°
2026-05-04 22:07 36.55964 -105.14149 14012 ft 234 kts 261°
2026-05-04 22:07 36.55438 -105.16020 14016 ft 234 kts 250°
2026-05-04 22:07 36.54791 -105.17867 14005 ft 233 kts 250°
2026-05-04 22:07 36.54367 -105.19805 13996 ft 231 kts 262°
2026-05-04 22:08 36.54297 -105.21788 14008 ft 230 kts 271°
2026-05-04 22:08 36.54377 -105.23772 14002 ft 229 kts 276°
2026-05-04 22:08 36.54633 -105.25721 13999 ft 229 kts 283°
2026-05-04 22:08 36.55150 -105.27589 14000 ft 228 kts 293°
2026-05-04 22:09 36.55929 -105.29282 14000 ft 229 kts 303°
2026-05-04 22:09 36.56964 -105.30787 14002 ft 229 kts 313°
2026-05-04 22:09 36.58185 -105.32058 14002 ft 230 kts 321°
2026-05-04 22:09 36.59540 -105.33122 13980 ft 231 kts 328°
2026-05-04 22:10 36.60972 -105.34055 13868 ft 233 kts 331°
2026-05-04 22:10 36.62420 -105.34972 13741 ft 234 kts 330°
2026-05-04 22:10 36.63829 -105.35962 13606 ft 235 kts 332°
2026-05-04 22:10 36.65453 -105.36263 13452 ft 243 kts
2026-05-04 22:11 36.66938 -105.35220 13337 ft 252 kts 41°
2026-05-04 22:11 36.67772 -105.33320 13233 ft 256 kts 69°
2026-05-04 22:11 36.67823 -105.31130 13109 ft 258 kts 97°
2026-05-04 22:11 36.67062 -105.29138 12984 ft 255 kts 126°
2026-05-04 22:12 36.65677 -105.27835 12857 ft 249 kts 155°
2026-05-04 22:12 36.64026 -105.27345 12760 ft 241 kts 174°
2026-05-04 22:12 36.62373 -105.27276 12637 ft 234 kts 183°
2026-05-04 22:12 36.60779 -105.27376 12506 ft 226 kts 186°
2026-05-04 22:13 36.59219 -105.27532 12373 ft 222 kts 187°
2026-05-04 22:13 36.57694 -105.27696 12244 ft 220 kts 188°
2026-05-04 22:13 36.56189 -105.27852 12117 ft 218 kts 187°
2026-05-04 22:13 36.54685 -105.27998 11989 ft 215 kts 187°
2026-05-04 22:14 36.53223 -105.28130 11859 ft 209 kts 187°
2026-05-04 22:14 36.51793 -105.28255 11441 ft 206 kts 187°
2026-05-04 22:14 36.50370 -105.28375 10882 ft 202 kts 186°
2026-05-04 22:14 36.48971 -105.28492 10235 ft 201 kts 186°
2026-05-04 22:15 36.47611 -105.28603 9801 ft 193 kts 186°
2026-05-04 22:15 36.46274 -105.28716 9352 ft 191 kts 186°
2026-05-04 22:15 36.44990 -105.28869 9033 ft 186 kts 187°
2026-05-04 22:15 36.43695 -105.28934 8647 ft 187 kts 183°
2026-05-04 22:16 36.42426 -105.28996 8439 ft 172 kts 185°
2026-05-04 22:16 36.41291 -105.29028 8390 ft 143 kts 184°
2026-05-04 22:16 36.40531 -105.29083 8401 ft 72 kts 187°
2026-05-04 22:16 36.40319 -105.29094 8411 ft 19 kts 182°
2026-05-04 22:17 36.40303 -105.29099 8412 ft 0 kts 210°
2026-05-04 22:19 36.40302 -105.29099 8412 ft 0 kts 210°
2026-05-04 22:19 36.40298 -105.29105 8413 ft 3 kts 229°
2026-05-04 22:19 36.40313 -105.29135 8413 ft 8 kts 346°
2026-05-04 22:19 36.40425 -105.29119 8407 ft 25 kts 12°
2026-05-04 22:20 36.40645 -105.29060 8396 ft 40 kts
2026-05-04 22:20 36.40975 -105.29033 8390 ft 55 kts 359°
2026-05-04 22:20 36.41370 -105.29028 8390 ft 53 kts
2026-05-04 22:20 36.41759 -105.29007 8390 ft 50 kts
2026-05-04 22:21 36.42089 -105.28999 8390 ft 53 kts
2026-05-04 22:21 36.42483 -105.28982 8390 ft 60 kts
2026-05-04 22:21 36.42811 -105.28971 8390 ft 34 kts
2026-05-04 22:21 36.43011 -105.28956 8390 ft 22 kts 359°
2026-05-04 22:22 36.43146 -105.28954 8390 ft 18 kts
2026-05-04 22:22 36.43255 -105.28950 8390 ft 14 kts
2026-05-04 22:22 36.43342 -105.28947 8390 ft 11 kts
2026-05-04 22:22 36.43395 -105.28965 8390 ft 5 kts 308°
2026-05-04 22:23 36.43401 -105.28979 8390 ft 0 kts 293°
2026-05-04 22:23 36.43401 -105.28980 8390 ft 1 kts 292°
2026-05-04 22:23 36.43402 -105.29019 8390 ft 3 kts 240°
2026-05-04 22:24 36.43366 -105.29042 8390 ft 10 kts 191°
2026-05-04 22:24 36.43265 -105.29050 8390 ft 20 kts 180°
2026-05-04 22:24 36.43094 -105.29056 8390 ft 29 kts 182°
2026-05-04 22:24 36.42855 -105.29067 8390 ft 39 kts 182°
2026-05-04 22:25 36.42572 -105.29076 8390 ft 39 kts 177°
2026-05-04 22:25 36.42275 -105.29087 8390 ft 47 kts 182°
2026-05-04 22:25 36.42029 -105.29096 8390 ft 17 kts 182°
2026-05-04 22:25 36.41952 -105.29099 8390 ft 11 kts 184°
2026-05-04 22:26 36.41917 -105.29146 8390 ft 7 kts 258°
2026-05-04 22:26 36.41914 -105.29183 8390 ft 2 kts 268°
2026-05-04 22:26 36.41914 -105.29192 8390 ft 0 kts 268°